International Skating Union - Official Site

Essent ISU World Cup Heerenveen
March 2-4, 2012

Draw | Lap Times | Index | World Cup

Referee: Hannu  KOIVU  (FIN)
Starter: Åke  FALK  (SWE)
StartTime: EndTime: Air Temp: Ice Temp: Humidity:
15:18 17:27
Result 10000m Men Division A
Rankings as of Mar 4 2012 4:31PM
Rank: No.: Name: Nation: Time: Behind: Points:
1 66 Bob  de JONG NED NED 12:58.47400m - 35.53 - (35.5)
800m - 1:06.32 - (30.8)
1200m - 1:37.37 - (31.0)
1600m - 2:08.29 - (30.9)
2000m - 2:39.22 - (30.9)
2400m - 3:10.09 - (30.8)
2800m - 3:41.13 - (31.0)
3200m - 4:12.19 - (31.0)
3600m - 4:43.27 - (31.0)
4000m - 5:14.23 - (30.9)
4400m - 5:45.29 - (31.0)
4800m - 6:16.17 - (30.8)
5200m - 6:47.21 - (31.0)
5600m - 7:18.00 - (30.7)
6000m - 7:49.00 - (31.0)
6400m - 8:20.07 - (31.0)
6800m - 8:51.27 - (31.2)
7200m - 9:22.05 - (30.7)
7600m - 9:53.44 - (31.3)
8000m - 10:24.63 - (31.1)
8400m - 10:56.08 - (31.4)
8800m - 11:27.17 - (31.0)
9200m - 11:58.41 - (31.2)
9600m - 12:28.61 - (30.2)
10000m - 12:58.47 - (29.8)
100
2 60 Jorrit  BERGSMA NED NED 12:59.34400m - 35.98 - (35.9)
800m - 1:07.32 - (31.3)
1200m - 1:38.71 - (31.3)
1600m - 2:09.70 - (30.9)
2000m - 2:40.99 - (31.2)
2400m - 3:12.38 - (31.3)
2800m - 3:43.51 - (31.1)
3200m - 4:14.43 - (30.9)
3600m - 4:45.35 - (30.9)
4000m - 5:16.28 - (30.9)
4400m - 5:47.04 - (30.7)
4800m - 6:17.60 - (30.5)
5200m - 6:48.33 - (30.7)
5600m - 7:19.20 - (30.8)
6000m - 7:50.07 - (30.8)
6400m - 8:21.02 - (30.9)
6800m - 8:51.76 - (30.7)
7200m - 9:22.71 - (30.9)
7600m - 9:53.96 - (31.2)
8000m - 10:25.20 - (31.2)
8400m - 10:56.01 - (30.8)
8800m - 11:26.86 - (30.8)
9200m - 11:57.70 - (30.8)
9600m - 12:28.85 - (31.1)
10000m - 12:59.34 - (30.4)
0.87 80
3 80 Håvard  BØKKO NOR NOR 13:11.95400m - 34.83 - (34.8)
800m - 1:06.47 - (31.6)
1200m - 1:38.15 - (31.6)
1600m - 2:09.76 - (31.6)
2000m - 2:41.08 - (31.3)
2400m - 3:12.63 - (31.5)
2800m - 3:44.14 - (31.5)
3200m - 4:15.59 - (31.4)
3600m - 4:47.13 - (31.5)
4000m - 5:18.79 - (31.6)
4400m - 5:50.42 - (31.6)
4800m - 6:22.17 - (31.7)
5200m - 6:53.64 - (31.4)
5600m - 7:25.11 - (31.4)
6000m - 7:56.19 - (31.0)
6400m - 8:27.53 - (31.3)
6800m - 8:58.87 - (31.3)
7200m - 9:30.19 - (31.3)
7600m - 10:01.80 - (31.6)
8000m - 10:33.55 - (31.7)
8400m - 11:05.22 - (31.6)
8800m - 11:36.82 - (31.6)
9200m - 12:08.49 - (31.6)
9600m - 12:40.06 - (31.5)
10000m - 13:11.95 - (31.9)
13.48 70
4 78 Douwe  de VRIES NED NED 13:14.40400m - 35.00 - (35.0)
800m - 1:06.74 - (31.7)
1200m - 1:38.81 - (32.0)
1600m - 2:10.14 - (31.3)
2000m - 2:40.97 - (30.8)
2400m - 3:11.90 - (30.9)
2800m - 3:43.09 - (31.1)
3200m - 4:14.14 - (31.0)
3600m - 4:45.37 - (31.2)
4000m - 5:16.72 - (31.3)
4400m - 5:48.02 - (31.3)
4800m - 6:19.25 - (31.2)
5200m - 6:50.47 - (31.2)
5600m - 7:22.02 - (31.5)
6000m - 7:53.68 - (31.6)
6400m - 8:25.45 - (31.7)
6800m - 8:57.24 - (31.7)
7200m - 9:29.07 - (31.8)
7600m - 10:01.02 - (31.9)
8000m - 10:33.16 - (32.1)
8400m - 11:05.37 - (32.2)
8800m - 11:37.87 - (32.5)
9200m - 12:10.30 - (32.4)
9600m - 12:42.29 - (31.9)
10000m - 13:14.40 - (32.1)
15.93 60
5 5 Bart  SWINGS BEL BEL 13:21.44400m - 35.01 - (35.0)
800m - 1:07.09 - (32.0)
1200m - 1:39.76 - (32.6)
1600m - 2:11.70 - (31.9)
2000m - 2:43.55 - (31.8)
2400m - 3:15.35 - (31.8)
2800m - 3:47.55 - (32.1)
3200m - 4:19.43 - (31.8)
3600m - 4:51.41 - (31.9)
4000m - 5:23.36 - (31.9)
4400m - 5:55.39 - (32.0)
4800m - 6:27.18 - (31.7)
5200m - 6:59.06 - (31.8)
5600m - 7:30.80 - (31.7)
6000m - 8:02.57 - (31.7)
6400m - 8:34.27 - (31.7)
6800m - 9:05.77 - (31.5)
7200m - 9:37.40 - (31.6)
7600m - 10:09.21 - (31.8)
8000m - 10:41.06 - (31.8)
8400m - 11:13.20 - (32.1)
8800m - 11:45.17 - (31.9)
9200m - 12:17.33 - (32.1)
9600m - 12:49.42 - (32.0)
10000m - 13:21.44 - (32.0)
22.97 50
6 30 Alexis  CONTIN FRA FRA 13:22.99400m - 34.80 - (34.8)
800m - 1:06.53 - (31.7)
1200m - 1:38.64 - (32.1)
1600m - 2:09.89 - (31.2)
2000m - 2:41.02 - (31.1)
2400m - 3:12.15 - (31.1)
2800m - 3:43.99 - (31.8)
3200m - 4:15.34 - (31.3)
3600m - 4:46.92 - (31.5)
4000m - 5:18.54 - (31.6)
4400m - 5:50.26 - (31.7)
4800m - 6:21.87 - (31.6)
5200m - 6:53.74 - (31.8)
5600m - 7:25.63 - (31.9)
6000m - 7:57.45 - (31.8)
6400m - 8:29.66 - (32.2)
6800m - 9:01.90 - (32.2)
7200m - 9:34.12 - (32.2)
7600m - 10:06.41 - (32.2)
8000m - 10:39.12 - (32.7)
8400m - 11:11.25 - (32.1)
8800m - 11:43.78 - (32.5)
9200m - 12:16.43 - (32.6)
9600m - 12:49.61 - (33.1)
10000m - 13:22.99 - (33.3)
24.52 45
7 41 Marco  WEBER GER GER 13:23.06400m - 35.72 - (35.7)
800m - 1:07.15 - (31.4)
1200m - 1:38.48 - (31.3)
1600m - 2:10.03 - (31.5)
2000m - 2:41.42 - (31.3)
2400m - 3:13.08 - (31.6)
2800m - 3:44.76 - (31.6)
3200m - 4:16.18 - (31.4)
3600m - 4:47.67 - (31.4)
4000m - 5:19.33 - (31.6)
4400m - 5:50.81 - (31.4)
4800m - 6:22.51 - (31.7)
5200m - 6:54.21 - (31.7)
5600m - 7:26.28 - (32.0)
6000m - 7:58.25 - (31.9)
6400m - 8:30.56 - (32.3)
6800m - 9:03.02 - (32.4)
7200m - 9:35.40 - (32.3)
7600m - 10:07.86 - (32.4)
8000m - 10:40.51 - (32.6)
8400m - 11:13.13 - (32.6)
8800m - 11:45.95 - (32.8)
9200m - 12:18.67 - (32.7)
9600m - 12:51.04 - (32.3)
10000m - 13:23.06 - (32.0)
24.59 40
8 34 Patrick  BECKERT GER GER 13:23.73400m - 35.75 - (35.7)
800m - 1:06.85 - (31.1)
1200m - 1:37.87 - (31.0)
1600m - 2:09.15 - (31.2)
2000m - 2:40.58 - (31.4)
2400m - 3:12.10 - (31.5)
2800m - 3:43.98 - (31.8)
3200m - 4:16.02 - (32.0)
3600m - 4:47.84 - (31.8)
4000m - 5:20.08 - (32.2)
4400m - 5:52.22 - (32.1)
4800m - 6:24.37 - (32.1)
5200m - 6:56.53 - (32.1)
5600m - 7:28.60 - (32.0)
6000m - 8:00.46 - (31.8)
6400m - 8:32.36 - (31.9)
6800m - 9:04.17 - (31.8)
7200m - 9:36.13 - (31.9)
7600m - 10:08.39 - (32.2)
8000m - 10:40.78 - (32.4)
8400m - 11:13.55 - (32.7)
8800m - 11:46.29 - (32.7)
9200m - 12:19.22 - (32.9)
9600m - 12:51.94 - (32.7)
10000m - 13:23.73 - (31.7)
25.26 35
9 35 Moritz  GEISREITER GER GER 13:25.13400m - 35.90 - (35.9)
800m - 1:07.53 - (31.6)
1200m - 1:40.41 - (32.8)
1600m - 2:13.12 - (32.7)
2000m - 2:45.60 - (32.4)
2400m - 3:17.66 - (32.0)
2800m - 3:49.98 - (32.3)
3200m - 4:22.03 - (32.0)
3600m - 4:53.73 - (31.7)
4000m - 5:25.25 - (31.5)
4400m - 5:56.91 - (31.6)
4800m - 6:29.00 - (32.0)
5200m - 7:01.08 - (32.0)
5600m - 7:33.05 - (31.9)
6000m - 8:05.32 - (32.2)
6400m - 8:37.45 - (32.1)
6800m - 9:09.43 - (31.9)
7200m - 9:41.94 - (32.5)
7600m - 10:14.25 - (32.3)
8000m - 10:46.51 - (32.2)
8400m - 11:18.70 - (32.1)
8800m - 11:50.86 - (32.1)
9200m - 12:22.79 - (31.9)
9600m - 12:54.15 - (31.3)
10000m - 13:25.13 - (30.9)
26.66 30
10 104 Jonathan  KUCK USA USA 13:25.28400m - 35.75 - (35.7)
800m - 1:08.15 - (32.4)
1200m - 1:40.75 - (32.6)
1600m - 2:13.01 - (32.2)
2000m - 2:45.39 - (32.3)
2400m - 3:18.21 - (32.8)
2800m - 3:50.78 - (32.5)
3200m - 4:23.25 - (32.4)
3600m - 4:55.58 - (32.3)
4000m - 5:27.47 - (31.9)
4400m - 5:59.86 - (32.3)
4800m - 6:31.97 - (32.1)
5200m - 7:04.24 - (32.2)
5600m - 7:36.63 - (32.3)
6000m - 8:09.15 - (32.5)
6400m - 8:41.30 - (32.1)
6800m - 9:13.66 - (32.3)
7200m - 9:45.68 - (32.0)
7600m - 10:17.62 - (31.9)
8000m - 10:49.06 - (31.4)
8400m - 11:20.31 - (31.2)
8800m - 11:51.26 - (30.9)
9200m - 12:22.31 - (31.0)
9600m - 12:53.81 - (31.5)
10000m - 13:25.28 - (31.4)
26.81 25
11 33 Alexej  BAUMGÄRTNER GER GER 13:26.87400m - 35.51 - (35.5)
800m - 1:06.07 - (30.5)
1200m - 1:37.35 - (31.2)
1600m - 2:08.37 - (31.0)
2000m - 2:39.47 - (31.0)
2400m - 3:10.42 - (30.9)
2800m - 3:41.66 - (31.2)
3200m - 4:13.08 - (31.4)
3600m - 4:44.66 - (31.5)
4000m - 5:16.41 - (31.7)
4400m - 5:48.37 - (31.9)
4800m - 6:20.57 - (32.2)
5200m - 6:52.93 - (32.3)
5600m - 7:25.37 - (32.4)
6000m - 7:57.90 - (32.5)
6400m - 8:30.46 - (32.5)
6800m - 9:03.28 - (32.8)
7200m - 9:35.75 - (32.4)
7600m - 10:08.64 - (32.8)
8000m - 10:41.37 - (32.7)
8400m - 11:14.69 - (33.3)
8800m - 11:48.04 - (33.3)
9200m - 12:21.29 - (33.2)
9600m - 12:54.28 - (32.9)
10000m - 13:26.87 - (32.5)
28.40 20
12 85 Shane  DOBBIN NZL NZL 13:28.07400m - 35.27 - (35.2)
800m - 1:06.45 - (31.1)
1200m - 1:38.57 - (32.1)
1600m - 2:10.35 - (31.7)
2000m - 2:42.06 - (31.7)
2400m - 3:13.90 - (31.8)
2800m - 3:46.03 - (32.1)
3200m - 4:18.01 - (31.9)
3600m - 4:50.01 - (32.0)
4000m - 5:21.83 - (31.8)
4400m - 5:53.61 - (31.7)
4800m - 6:25.49 - (31.8)
5200m - 6:57.41 - (31.9)
5600m - 7:29.60 - (32.2)
6000m - 8:01.87 - (32.2)
6400m - 8:33.93 - (32.0)
6800m - 9:05.84 - (31.9)
7200m - 9:37.75 - (31.9)
7600m - 10:09.95 - (32.2)
8000m - 10:42.40 - (32.4)
8400m - 11:14.98 - (32.5)
8800m - 11:47.77 - (32.7)
9200m - 12:20.87 - (33.1)
9600m - 12:54.23 - (33.3)
10000m - 13:28.07 - (33.8)
29.60 15